Location: Poughquag
(41.6090°N, 73.6820°W)
Time: 10:15:06
(UTC-05:00)

N. Korean satellite - Pass Details

Date: 18 January 2020
Orbit: 456 x 505 km, 97.2° (Epoch: 24 February)

Event Time Altitude Azimuth Distance (km) Brightness Sun altitude
Rises 05:18:27 0° 20° (NNE) 2,512 10.3 -22.0°
Reaches altitude 10° 05:20:36 10° 28° (NNE) 1,639 9.5 -21.6°
Maximum altitude 05:23:54 38° 98° (E) 743 8.0 -21.0°
Drops below altitude 10° 05:27:14 10° 168° (SSE) 1,651 9.5 -20.4°
Sets 05:29:24 0° 176° (S) 2,535 10.4 -20.0°
